User: anonymous   Login
Location: Park Creek Village Mobile Home Park
(38.2885°N, 122.4714°W)
Time: 11:06:26
(UTC+00:00)
Language:

SJ-7 - Orbit

View from above orbital plane
View from above orbital plane
View from above satellite
View from above satellite

Ground track
Ground track

The orbit data is extracted from the following two-line orbital elements,

1 28737U 05024A   20057.34889761 +.00000682 +00000-0 +65491-4 0  9993
2 28737 097.6817 058.3303 0032118 261.1863 098.5721 14.95966933802064
Epoch (UTC): 26 February 2020 08:22:24
Eccentricity: 0.0032118
inclination: 97.6817°
perigee height: 557 km
apogee height: 602 km
right ascension of ascending node: 58.3303°
argument of perigee: 261.1863°
revolutions per day: 14.95966933
mean anomaly at epoch: 98.5721°
orbit number at epoch: 80206

The dashed part of the orbit path shows where the satellite is in the earth's shadow,  

DLR